Time,TemperatureF,DewpointF,PressureIn,WindDirection,WindDirectionDegrees,WindSpeedMPH,WindSpeedGustMPH,Humidity,HourlyPrecipIn,Conditions,Clouds,dailyrainin,SoftwareType,DateUTC
2013-02-07 00:02:00,15.0,9.0,30.23,North,351,1.0,4.0,76,-99.99,,,-99.99,,2013-02-07 05:02:00,
2013-02-07 00:12:00,15.0,9.0,30.23,North,351,1.0,4.0,76,-99.99,,,-99.99,,2013-02-07 05:12:00,
2013-02-07 00:21:00,15.0,9.0,30.23,North,351,1.0,4.0,76,-99.99,,,-99.99,,2013-02-07 05:21:00,
2013-02-07 00:32:00,13.0,7.0,30.23,North,0,0.0,0.0,77,-99.99,,,-99.99,,2013-02-07 05:32:00,
2013-02-07 00:43:00,13.0,7.0,30.23,North,0,0.0,0.0,77,-99.99,,,-99.99,,2013-02-07 05:43:00,
2013-02-07 00:52:00,12.0,8.0,30.23,NW,315,0.0,1.0,83,-99.99,,,-99.99,,2013-02-07 05:52:00,
2013-02-07 01:02:00,12.0,8.0,30.22,North,11,2.0,4.0,82,-99.99,,,-99.99,,2013-02-07 06:02:00,
2013-02-07 01:11:00,12.0,8.0,30.22,North,11,2.0,4.0,82,-99.99,,,-99.99,,2013-02-07 06:11:00,
2013-02-07 01:22:00,12.0,8.0,30.22,North,11,2.0,4.0,82,-99.99,,,-99.99,,2013-02-07 06:22:00,
2013-02-07 01:32:00,12.0,8.0,30.22,North,11,2.0,4.0,82,-99.99,,,-99.99,,2013-02-07 06:32:00,
2013-02-07 01:43:00,12.0,8.0,30.22,North,11,2.0,4.0,82,-99.99,,,-99.99,,2013-02-07 06:43:00,
2013-02-07 01:53:00,13.0,9.0,30.22,North,0,1.0,3.0,82,-99.99,,,-99.99,,2013-02-07 06:53:00,
2013-02-07 02:02:00,13.0,9.0,30.22,North,0,1.0,3.0,82,-99.99,,,-99.99,,2013-02-07 07:02:00,
2013-02-07 02:11:00,13.0,9.0,30.22,North,0,1.0,3.0,82,-99.99,,,-99.99,,2013-02-07 07:11:00,
2013-02-07 02:22:00,13.0,9.0,30.22,North,0,1.0,3.0,82,-99.99,,,-99.99,,2013-02-07 07:22:00,
2013-02-07 02:32:00,12.0,8.0,30.22,North,0,3.0,3.0,83,-99.99,,,-99.99,,2013-02-07 07:32:00,
2013-02-07 02:42:00,12.0,8.0,30.22,North,0,3.0,3.0,83,-99.99,,,-99.99,,2013-02-07 07:42:00,
2013-02-07 02:52:00,11.0,7.0,30.22,North,0,0.0,1.0,84,-99.99,,,-99.99,,2013-02-07 07:52:00,
2013-02-07 03:02:00,10.0,6.0,30.23,North,0,0.0,0.0,84,-99.99,,,-99.99,,2013-02-07 08:02:00,
2013-02-07 03:11:00,10.0,6.0,30.23,North,0,0.0,0.0,84,-99.99,,,-99.99,,2013-02-07 08:11:00,
2013-02-07 03:22:00,10.0,6.0,30.23,North,0,0.0,0.0,84,-99.99,,,-99.99,,2013-02-07 08:22:00,
2013-02-07 03:32:00,9.0,6.0,30.23,North,0,0.0,0.0,87,-99.99,,,-99.99,,2013-02-07 08:32:00,
2013-02-07 03:52:00,7.0,5.0,30.24,SE,135,0.0,0.0,90,-99.99,,,-99.99,,2013-02-07 08:52:00,
2013-02-07 04:02:00,7.0,5.0,30.25,SE,135,0.0,0.0,92,-99.99,,,-99.99,,2013-02-07 09:02:00,
2013-02-07 04:32:00,7.0,6.0,30.25,SE,135,0.0,0.0,94,-99.99,,,-99.99,,2013-02-07 09:32:00,
2013-02-07 05:02:00,6.0,6.0,30.26,SE,135,0.0,0.0,98,-99.99,,,-99.99,,2013-02-07 10:02:00,
2013-02-07 05:32:00,6.0,6.0,30.26,SE,135,0.0,1.0,98,-99.99,,,-99.99,,2013-02-07 10:32:00,
2013-02-07 05:52:00,6.0,6.0,30.27,SE,135,0.0,0.0,98,-99.99,,,-99.99,,2013-02-07 10:52:00,
2013-02-07 06:01:00,6.0,6.0,30.27,SE,135,0.0,0.0,98,-99.99,,,-99.99,,2013-02-07 11:01:00,
2013-02-07 06:11:00,6.0,6.0,30.27,SE,135,0.0,0.0,98,-99.99,,,-99.99,,2013-02-07 11:11:00,
2013-02-07 06:23:00,6.0,6.0,30.27,SE,135,0.0,0.0,98,-99.99,,,-99.99,,2013-02-07 11:23:00,
2013-02-07 06:53:00,6.0,6.0,30.30,SE,135,0.0,0.0,100,-99.99,,,-99.99,,2013-02-07 11:53:00,
2013-02-07 07:02:00,5.0,5.0,30.31,SE,135,0.0,0.0,100,-99.99,,,-99.99,,2013-02-07 12:02:00,
2013-02-07 07:33:00,5.0,-59.0,30.33,SE,135,0.0,0.0,3,-99.99,,,-99.99,,2013-02-07 12:33:00,
2013-02-07 08:32:00,7.0,-58.0,30.35,SE,135,0.0,0.0,3,-99.99,,,-99.99,,2013-02-07 13:32:00,
2013-02-07 08:52:00,10.0,10.0,30.37,North,0,1.0,2.0,98,-99.99,,,-99.99,,2013-02-07 13:52:00,
2013-02-07 09:01:00,10.0,10.0,30.37,North,0,1.0,2.0,98,-99.99,,,-99.99,,2013-02-07 14:01:00,
2013-02-07 09:11:00,10.0,10.0,30.37,North,0,1.0,2.0,98,-99.99,,,-99.99,,2013-02-07 14:11:00,
2013-02-07 09:22:00,10.0,10.0,30.37,North,0,1.0,2.0,98,-99.99,,,-99.99,,2013-02-07 14:22:00,
2013-02-07 09:32:00,14.0,7.0,30.38,NNE,29,1.0,2.0,74,-99.99,,,-99.99,,2013-02-07 14:32:00,
2013-02-07 09:42:00,14.0,7.0,30.38,NNE,29,1.0,2.0,74,-99.99,,,-99.99,,2013-02-07 14:42:00,
2013-02-07 09:52:00,16.0,8.0,30.39,North,0,2.0,4.0,69,-99.99,,,-99.99,,2013-02-07 14:52:00,
2013-02-07 10:02:00,16.0,8.0,30.39,North,0,2.0,4.0,69,-99.99,,,-99.99,,2013-02-07 15:02:00,
2013-02-07 10:11:00,16.0,8.0,30.39,North,0,2.0,4.0,69,-99.99,,,-99.99,,2013-02-07 15:11:00,
2013-02-07 10:22:00,16.0,8.0,30.39,North,0,2.0,4.0,69,-99.99,,,-99.99,,2013-02-07 15:22:00,
2013-02-07 10:32:00,19.0,8.0,30.39,East,90,1.0,3.0,62,-99.99,,,-99.99,,2013-02-07 15:32:00,
2013-02-07 10:42:00,19.0,8.0,30.39,East,90,1.0,3.0,62,-99.99,,,-99.99,,2013-02-07 15:42:00,
2013-02-07 10:52:00,20.0,8.0,30.39,SW,225,0.0,4.0,60,-99.99,,,-99.99,,2013-02-07 15:52:00,
2013-02-07 11:01:00,20.0,8.0,30.39,SW,225,0.0,4.0,60,-99.99,,,-99.99,,2013-02-07 16:01:00,
2013-02-07 11:11:00,20.0,8.0,30.39,SW,225,0.0,4.0,60,-99.99,,,-99.99,,2013-02-07 16:11:00,
2013-02-07 11:22:00,20.0,8.0,30.39,SW,225,0.0,4.0,60,-99.99,,,-99.99,,2013-02-07 16:22:00,
2013-02-07 11:32:00,22.0,7.0,30.40,NNE,22,2.0,7.0,52,-99.99,,,-99.99,,2013-02-07 16:32:00,
2013-02-07 11:42:00,22.0,7.0,30.40,NNE,22,2.0,7.0,52,-99.99,,,-99.99,,2013-02-07 16:42:00,
2013-02-07 11:52:00,23.0,8.0,30.38,North,0,6.0,6.0,52,-99.99,,,-99.99,,2013-02-07 16:52:00,
2013-02-07 12:01:00,23.0,8.0,30.37,NNW,346,4.0,6.0,51,-99.99,,,-99.99,,2013-02-07 17:01:00,
2013-02-07 12:11:00,23.0,8.0,30.37,NNW,346,4.0,6.0,51,-99.99,,,-99.99,,2013-02-07 17:11:00,
2013-02-07 12:21:00,23.0,8.0,30.37,NNW,346,4.0,6.0,51,-99.99,,,-99.99,,2013-02-07 17:21:00,
2013-02-07 12:32:00,24.0,8.0,30.36,NNW,344,3.0,7.0,49,-99.99,,,-99.99,,2013-02-07 17:32:00,
2013-02-07 12:43:00,24.0,8.0,30.36,NNW,344,3.0,7.0,49,-99.99,,,-99.99,,2013-02-07 17:43:00,
2013-02-07 12:52:00,26.0,9.0,30.36,North,6,5.0,7.0,47,-99.99,,,-99.99,,2013-02-07 17:52:00,
2013-02-07 13:02:00,26.0,8.0,30.35,SW,229,2.0,6.0,46,-99.99,,,-99.99,,2013-02-07 18:02:00,
2013-02-07 13:12:00,26.0,8.0,30.35,SW,229,2.0,6.0,46,-99.99,,,-99.99,,2013-02-07 18:12:00,
2013-02-07 13:23:00,26.0,8.0,30.35,SW,229,2.0,6.0,46,-99.99,,,-99.99,,2013-02-07 18:23:00,
2013-02-07 13:32:00,26.0,9.0,30.35,WNW,297,2.0,5.0,47,-99.99,,,-99.99,,2013-02-07 18:32:00,
2013-02-07 13:42:00,26.0,9.0,30.35,WNW,297,2.0,5.0,47,-99.99,,,-99.99,,2013-02-07 18:42:00,
2013-02-07 13:52:00,27.0,9.0,30.33,North,0,7.0,7.0,46,-99.99,,,-99.99,,2013-02-07 18:52:00,
2013-02-07 14:01:00,27.0,9.0,30.32,NNW,342,4.0,7.0,46,-99.99,,,-99.99,,2013-02-07 19:01:00,
2013-02-07 14:11:00,27.0,9.0,30.32,NNW,342,4.0,7.0,46,-99.99,,,-99.99,,2013-02-07 19:11:00,
2013-02-07 14:22:00,27.0,9.0,30.32,NNW,342,4.0,7.0,46,-99.99,,,-99.99,,2013-02-07 19:22:00,
2013-02-07 14:32:00,27.0,9.0,30.32,NNW,337,4.0,5.0,45,-99.99,,,-99.99,,2013-02-07 19:32:00,
2013-02-07 14:42:00,27.0,9.0,30.32,NNW,337,4.0,5.0,45,-99.99,,,-99.99,,2013-02-07 19:42:00,
2013-02-07 14:52:00,26.0,9.0,30.32,North,0,4.0,6.0,48,-99.99,,,-99.99,,2013-02-07 19:52:00,
2013-02-07 15:01:00,26.0,8.0,30.32,North,355,6.0,7.0,46,-99.99,,,-99.99,,2013-02-07 20:01:00,
2013-02-07 15:11:00,26.0,8.0,30.32,North,355,6.0,7.0,46,-99.99,,,-99.99,,2013-02-07 20:11:00,
2013-02-07 15:22:00,26.0,8.0,30.32,North,355,6.0,7.0,46,-99.99,,,-99.99,,2013-02-07 20:22:00,
2013-02-07 15:32:00,26.0,9.0,30.32,North,0,3.0,4.0,48,-99.99,,,-99.99,,2013-02-07 20:32:00,
2013-02-07 15:42:00,26.0,9.0,30.32,North,0,3.0,4.0,48,-99.99,,,-99.99,,2013-02-07 20:42:00,
2013-02-07 15:52:00,25.0,9.0,30.31,North,11,3.0,5.0,49,-99.99,,,-99.99,,2013-02-07 20:52:00,
2013-02-07 16:02:00,25.0,8.0,30.30,NW,306,3.0,5.0,48,-99.99,,,-99.99,,2013-02-07 21:02:00,
2013-02-07 16:11:00,25.0,8.0,30.30,NW,306,3.0,5.0,48,-99.99,,,-99.99,,2013-02-07 21:11:00,
2013-02-07 16:22:00,25.0,8.0,30.30,NW,306,3.0,5.0,48,-99.99,,,-99.99,,2013-02-07 21:22:00,
2013-02-07 16:32:00,25.0,8.0,30.30,NW,306,3.0,5.0,48,-99.99,,,-99.99,,2013-02-07 21:32:00,
2013-02-07 16:42:00,25.0,8.0,30.30,NW,306,3.0,5.0,48,-99.99,,,-99.99,,2013-02-07 21:42:00,
2013-02-07 16:52:00,25.0,9.0,30.29,North,0,2.0,3.0,49,-99.99,,,-99.99,,2013-02-07 21:52:00,
2013-02-07 17:02:00,25.0,9.0,30.29,North,0,2.0,3.0,49,-99.99,,,-99.99,,2013-02-07 22:02:00,
2013-02-07 17:11:00,25.0,9.0,30.29,North,0,2.0,3.0,49,-99.99,,,-99.99,,2013-02-07 22:11:00,
2013-02-07 17:21:00,24.0,8.0,30.29,North,0,3.0,3.0,50,-99.99,,,-99.99,,2013-02-07 22:21:00,
2013-02-07 17:32:00,23.0,8.0,30.28,North,0,1.0,5.0,52,-99.99,,,-99.99,,2013-02-07 22:32:00,
2013-02-07 17:42:00,23.0,8.0,30.28,North,0,1.0,5.0,52,-99.99,,,-99.99,,2013-02-07 22:42:00,
2013-02-07 17:52:00,23.0,8.0,30.29,North,9,4.0,4.0,52,-99.99,,,-99.99,,2013-02-07 22:52:00,
2013-02-07 18:02:00,23.0,8.0,30.29,North,9,4.0,4.0,52,-99.99,,,-99.99,,2013-02-07 23:02:00,
2013-02-07 18:11:00,23.0,8.0,30.29,North,9,4.0,4.0,52,-99.99,,,-99.99,,2013-02-07 23:11:00,
2013-02-07 18:22:00,23.0,9.0,30.29,WSW,252,1.0,3.0,55,-99.99,,,-99.99,,2013-02-07 23:22:00,
2013-02-07 18:32:00,23.0,9.0,30.29,WSW,252,1.0,3.0,55,-99.99,,,-99.99,,2013-02-07 23:32:00,
2013-02-07 18:42:00,23.0,9.0,30.29,WSW,252,1.0,3.0,55,-99.99,,,-99.99,,2013-02-07 23:42:00,
2013-02-07 18:52:00,23.0,9.0,30.30,North,0,1.0,3.0,55,-99.99,,,-99.99,,2013-02-07 23:52:00,
2013-02-07 19:02:00,23.0,9.0,30.30,North,0,1.0,3.0,55,-99.99,,,-99.99,,2013-02-08 00:02:00,
2013-02-07 19:11:00,23.0,9.0,30.30,North,0,1.0,3.0,55,-99.99,,,-99.99,,2013-02-08 00:11:00,
2013-02-07 19:22:00,22.0,9.0,30.30,North,0,0.0,2.0,56,-99.99,,,-99.99,,2013-02-08 00:22:00,
2013-02-07 19:32:00,22.0,9.0,30.29,North,0,1.0,2.0,56,-99.99,,,-99.99,,2013-02-08 00:32:00,
2013-02-07 19:42:00,22.0,9.0,30.29,North,0,1.0,2.0,56,-99.99,,,-99.99,,2013-02-08 00:42:00,
2013-02-07 19:52:00,22.0,9.0,30.29,North,0,1.0,2.0,56,-99.99,,,-99.99,,2013-02-08 00:52:00,
2013-02-07 20:01:00,22.0,9.0,30.29,North,0,1.0,2.0,56,-99.99,,,-99.99,,2013-02-08 01:01:00,
2013-02-07 20:11:00,22.0,10.0,30.29,North,0,2.0,2.0,59,-99.99,,,-99.99,,2013-02-08 01:11:00,
2013-02-07 20:21:00,22.0,10.0,30.28,North,0,1.0,3.0,58,-99.99,,,-99.99,,2013-02-08 01:21:00,
2013-02-07 20:32:00,22.0,10.0,30.29,North,0,2.0,2.0,59,-99.99,,,-99.99,,2013-02-08 01:32:00,
2013-02-07 20:42:00,22.0,10.0,30.29,North,0,2.0,2.0,59,-99.99,,,-99.99,,2013-02-08 01:42:00,
2013-02-07 20:51:00,22.0,10.0,30.29,North,0,2.0,2.0,59,-99.99,,,-99.99,,2013-02-08 01:51:00,
2013-02-07 21:01:00,22.0,10.0,30.29,North,0,2.0,2.0,59,-99.99,,,-99.99,,2013-02-08 02:01:00,
2013-02-07 21:32:00,19.0,10.0,30.29,NW,315,1.0,1.0,66,-99.99,,,-99.99,,2013-02-08 02:32:00,
2013-02-07 21:42:00,19.0,10.0,30.29,NW,315,1.0,1.0,66,-99.99,,,-99.99,,2013-02-08 02:42:00,
2013-02-07 21:52:00,18.0,9.0,30.27,SE,135,0.0,0.0,67,-99.99,,,-99.99,,2013-02-08 02:52:00,
2013-02-07 22:02:00,18.0,9.0,30.27,SE,135,0.0,0.0,67,-99.99,,,-99.99,,2013-02-08 03:02:00,
2013-02-07 22:12:00,18.0,9.0,30.27,SE,135,0.0,0.0,67,-99.99,,,-99.99,,2013-02-08 03:12:00,
2013-02-07 22:22:00,18.0,10.0,30.27,SE,135,0.0,1.0,69,-99.99,,,-99.99,,2013-02-08 03:22:00,
2013-02-07 22:32:00,17.0,9.0,30.27,SE,135,0.0,0.0,70,-99.99,,,-99.99,,2013-02-08 03:32:00,
2013-02-07 22:42:00,17.0,9.0,30.27,SE,135,0.0,0.0,70,-99.99,,,-99.99,,2013-02-08 03:42:00,
2013-02-07 22:52:00,16.0,9.0,30.26,SE,135,0.0,0.0,73,-99.99,,,-99.99,,2013-02-08 03:52:00,
2013-02-07 23:02:00,16.0,9.0,30.26,SE,135,0.0,0.0,73,-99.99,,,-99.99,,2013-02-08 04:02:00,
2013-02-07 23:11:00,16.0,9.0,30.26,SE,135,0.0,0.0,73,-99.99,,,-99.99,,2013-02-08 04:11:00,
2013-02-07 23:21:00,14.0,8.0,30.26,SE,135,0.0,0.0,76,-99.99,,,-99.99,,2013-02-08 04:21:00,
2013-02-07 23:32:00,14.0,9.0,30.25,SE,135,0.0,0.0,79,-99.99,,,-99.99,,2013-02-08 04:32:00,
2013-02-07 23:51:00,15.0,11.0,30.24,SE,135,0.0,0.0,82,-99.99,,,-99.99,,2013-02-08 04:51:00,